Flag for Germany Weather past 2 weeks in Konstanz, Baden-Württemberg, Germany

Now
56 °F

Partly sunny.


Feels Like: 57 °F
Forecast: 39 / 61 °F
Wind: 3 mph from Northwest

Location: Konstanz

Current Time: Sep 22, 2014 at 6:30:12 PM

Latest Report: Sep 22, 2014 at 6:00 PM


Visibility: 16 mi

Pressure: 30.10 "Hg

Humidity: 58%

Dew point: 42 °F

Location of KonstanzLocation

Historic Weather in Konstanz — Graph

°F

Konstanz temperature yesterday

Maximum temperature yesterday: 70 °F (at 2:00 PM)
Minimum temperature yesterday: 56 °F (at 11:00 PM)
Average temperature yesterday: 61 °F

Past Weeks' High & Low Weather Summary

 TemperatureHumidityPressure
High78 °F (Sep 7, 6:00 PM)99% (Sep 16, 4:00 AM)30.15 "Hg (Sep 16, 4:00 AM)
Low49 °F (Sep 12, 7:00 AM)47% (Sep 11, 3:00 PM)29.80 "Hg (Sep 17, 6:00 PM)
Average62 °F83%29.99 "Hg
* Reported Sep 7 5:00 PM — Sep 22 5:00 PM, Konstanz, Weather by CustomWeather, © 2014

Note: Actual official high and low records may vary slightly from our data, if they occured in-between our weather recording intervals... More about our weather records

Advertising

Konstanz weather history for previous 24 hours

 ConditionsComfort  
Time TempWeatherWind HumidityBarometerVisibility
5:00 PM
Sep 22
56 °FOvercast.5 mph59%30.08 "Hg16 mi
4:00 PM58 °FOvercast.5 mph58%30.07 "Hg22 mi
3:00 PM59 °FPartly sunny.5 mph51%30.06 "Hg22 mi
2:00 PM59 °FPartly sunny.3 mph50%30.08 "Hg19 mi
1:00 PM59 °FScattered clouds.3 mph55%30.11 "Hg17 mi
12:00 PM59 °FScattered clouds.3 mph64%30.12 "Hg14 mi
11:00 AM56 °FScattered clouds.3 mph76%30.14 "Hg12 mi
10:00 AM54 °FPassing clouds.1 mph79%30.14 "Hg9 mi
9:00 AM53 °FPassing clouds.2 mph86%30.14 "Hg11 mi
8:00 AM51 °FScattered clouds.1 mph93%30.15 "Hg11 mi
7:00 AM51 °FPassing clouds.2 mph93%30.13 "Hg6 mi
6:00 AM52 °FPassing clouds.2 mph94%30.11 "Hg6 mi
5:00 AM54 °FPassing clouds.2 mph94%30.10 "Hg14 mi
4:00 AM54 °FOvercast.2 mph94%30.09 "Hg19 mi
3:00 AM55 °FOvercast.1 mph96%30.09 "Hg22 mi
2:00 AM55 °FDrizzle. Overcast.2 mph94%30.10 "Hg34 mi
1:00 AM56 °FLight rain. Overcast.1 mph95%30.09 "Hg25 mi
12:00 AM56 °FLight rain. Overcast.2 mph93%30.07 "Hg11 mi
11:00 PM
Sep 21
56 °FLight rain. Light fog.1 mph95%30.06 "Hg6 mi
10:00 PM58 °FLight rain. Overcast.6 mph89%30.03 "Hg5 mi
9:00 PM59 °FRain. Overcast.5 mph95%30.00 "Hg5 mi
8:00 PM60 °FLight rain. Overcast.5 mph90%29.98 "Hg22 mi
7:00 PM61 °FLight rain. Overcast.2 mph92%29.98 "Hg22 mi
6:00 PM61 °FLight rain. Overcast.3 mph92%29.98 "Hg9 mi
Weather by CustomWeather, © 2014

See weather overviewHow to use our weather pages